| time (UTC) | temp F | wind direction | speed MPH | gust MPH | rain 1hr in | rain 24hr in | rain mn in | humidity % | barometer mb |
| 20260506202002 | 48 | 13 | 0.0 | 0.0 | 0.06 | 1.74 | 0.00 | 89 | 1008.2 |
| 20260506201502 | 48 | 13 | 0.0 | 0.0 | 0.08 | 1.74 | 0.00 | 89 | 1008.2 |
| 20260506201002 | 48 | 8 | 0.0 | 0.0 | 0.09 | 1.73 | 0.00 | 89 | 1008.1 |
| 20260506200502 | 48 | 345 | 0.0 | 0.0 | 0.11 | 1.73 | 0.00 | 89 | 1008.1 |
| 20260506200003 | 48 | 354 | 2.0 | 0.0 | 0.13 | 1.72 | 0.00 | 89 | 1008.1 |
| 20260506195502 | 48 | 62 | 0.0 | 0.0 | 0.07 | 1.71 | 0.00 | 89 | 1008.1 |
| 20260506195002 | 48 | 340 | 0.0 | 0.0 | 0.06 | 1.70 | 0.00 | 89 | 1008.0 |
| 20260506194502 | 48 | 6 | 0.0 | 0.0 | 0.06 | 1.69 | 0.00 | 89 | 1008.1 |
| 20260506194002 | 48 | 358 | 0.0 | 0.0 | 0.06 | 1.69 | 0.00 | 89 | 1008.0 |
| 20260506193502 | 48 | 12 | 0.0 | 0.0 | 0.07 | 1.68 | 0.00 | 89 | 1008.0 |
| 20260506192502 | 48 | 11 | 0.0 | 0.0 | 0.08 | 1.67 | 0.00 | 89 | 1007.9 |
| 20260506192002 | 48 | 9 | 0.0 | 0.0 | 0.08 | 1.67 | 0.00 | 89 | 1007.9 |
| 20260506191502 | 48 | 2 | 5.0 | 0.0 | 0.00 | 1.66 | 0.00 | 89 | 1007.7 |
| 20260506191002 | 48 | 42 | 0.0 | 0.0 | 0.00 | 1.65 | 0.00 | 89 | 1007.6 |
| 20260506190503 | 48 | 1 | 0.0 | 0.0 | 0.00 | 1.65 | 0.00 | 89 | 1007.6 |
| 20260506190003 | 48 | 359 | 0.0 | 0.0 | 0.00 | 1.65 | 0.00 | 89 | 1007.5 |
| 20260506185502 | 48 | 20 | 0.0 | 0.0 | 0.05 | 1.65 | 0.00 | 89 | 1007.5 |
| 20260506185003 | 48 | 34 | 0.0 | 0.0 | 0.05 | 1.65 | 0.00 | 89 | 1007.4 |
| 20260506184503 | 48 | 45 | 0.0 | 0.0 | 0.05 | 1.65 | 0.00 | 89 | 1007.3 |
| 20260506184003 | 48 | 348 | 0.0 | 0.0 | 0.00 | 1.64 | 0.00 | 89 | 1007.2 |
| 20260506183503 | 48 | 23 | 0.0 | 0.0 | 0.00 | 1.64 | 0.00 | 89 | 1007.2 |
| 20260506183003 | 48 | 347 | 0.0 | 0.0 | 0.00 | 1.64 | 0.00 | 89 | 1007.1 |
| 20260506182502 | 48 | 345 | 0.0 | 0.0 | 0.00 | 1.63 | 0.00 | 89 | 1007.1 |
| 20260506182002 | 48 | 44 | 5.0 | 0.0 | 0.00 | 1.63 | 0.00 | 89 | 1007.1 |
| 20260506181502 | 48 | 4 | 0.0 | 0.0 | 0.00 | 1.63 | 0.00 | 89 | 1007.0 |
| 20260506181002 | 48 | 22 | 0.0 | 0.0 | 0.00 | 1.62 | 0.00 | 90 | 1007.1 |
| 20260506180502 | 48 | 23 | 0.0 | 0.0 | 0.04 | 1.62 | 0.00 | 89 | 1007.0 |
| 20260506180003 | 48 | 356 | 0.0 | 0.0 | 0.04 | 1.62 | 0.00 | 90 | 1007.0 |
| 20260506175502 | 48 | 4 | 0.0 | 0.0 | 0.04 | 1.62 | 0.00 | 90 | 1007.0 |
| 20260506175002 | 48 | 4 | 0.0 | 0.0 | 0.05 | 1.61 | 0.00 | 90 | 1006.9 |
| 20260506174502 | 48 | 54 | 0.0 | 0.0 | 0.07 | 1.61 | 0.00 | 90 | 1006.9 |
| 20260506174002 | 48 | 354 | 0.0 | 0.0 | 0.14 | 1.61 | 0.00 | 90 | 1006.9 |
| 20260506173502 | 48 | 2 | 0.0 | 0.0 | 0.17 | 1.60 | 0.00 | 90 | 1006.9 |
| 20260506173002 | 48 | 33 | 0.0 | 0.0 | 0.12 | 1.60 | 0.00 | 90 | 1006.8 |
| 20260506172502 | 48 | 21 | 0.0 | 0.0 | 0.14 | 1.59 | 0.00 | 90 | 1006.8 |
| 20260506172003 | 48 | 349 | 0.0 | 0.0 | 0.13 | 1.58 | 0.00 | 90 | 1006.8 |
| 20260506171503 | 48 | 352 | 0.0 | 0.0 | 0.05 | 1.57 | 0.00 | 89 | 1006.8 |
| 20260506171003 | 48 | 356 | 0.0 | 0.0 | 0.04 | 1.56 | 0.00 | 89 | 1006.8 |
| 20260506170503 | 48 | 352 | 0.0 | 0.0 | 0.04 | 1.56 | 0.00 | 89 | 1006.8 |
| 20260506170002 | 48 | 348 | 5.0 | 0.0 | 0.05 | 1.55 | 0.00 | 90 | 1006.7 |
| 20260506165503 | 48 | 341 | 0.0 | 0.0 | 0.05 | 1.55 | 0.00 | 89 | 1006.6 |
| 20260506165003 | 49 | 15 | 0.0 | 0.0 | 0.05 | 1.55 | 0.00 | 90 | 1006.6 |
| 20260506164502 | 48 | 329 | 0.0 | 0.0 | 0.05 | 1.54 | 0.00 | 89 | 1006.6 |
| 20260506164002 | 49 | 15 | 0.0 | 0.0 | 0.05 | 1.54 | 0.00 | 90 | 1006.6 |
| 20260506163502 | 49 | 50 | 0.0 | 0.0 | 0.06 | 1.53 | 0.00 | 90 | 1006.6 |
| 20260506163002 | 49 | 356 | 0.0 | 0.0 | 0.08 | 1.53 | 0.00 | 90 | 1006.5 |
| 20260506162502 | 49 | 3 | 0.0 | 0.0 | 0.09 | 1.52 | 0.00 | 90 | 1006.5 |
| 20260506162002 | 49 | 27 | 0.0 | 0.0 | 0.12 | 1.52 | 0.00 | 90 | 1006.5 |
| 20260506161502 | 49 | 18 | 0.0 | 0.0 | 0.18 | 1.51 | 0.00 | 90 | 1006.5 |
| 20260506161002 | 48 | 11 | 0.0 | 0.0 | 0.16 | 1.49 | 0.00 | 90 | 1006.5 |
| 20260506160502 | 48 | 340 | 6.0 | 0.0 | 0.17 | 1.48 | 0.00 | 90 | 1006.5 |
| 20260506160002 | 48 | 40 | 0.0 | 0.0 | 0.27 | 1.47 | 0.00 | 90 | 1006.5 |
| 20260506155502 | 49 | 3 | 0.0 | 0.0 | 0.13 | 1.45 | 0.00 | 90 | 1006.6 |
| 20260506155002 | 49 | 2 | 0.0 | 0.0 | 0.07 | 1.44 | 0.00 | 90 | 1006.6 |
| 20260506154502 | 49 | 2 | 0.0 | 0.0 | 0.14 | 1.43 | 0.00 | 90 | 1006.6 |
| 20260506154002 | 49 | 17 | 0.0 | 0.0 | 0.07 | 1.42 | 0.00 | 90 | 1006.7 |
| 20260506153502 | 49 | 21 | 0.0 | 0.0 | 0.04 | 1.41 | 0.00 | 90 | 1006.6 |
| 20260506153003 | 49 | 18 | 3.0 | 0.0 | 0.04 | 1.41 | 0.00 | 90 | 1006.6 |
| 20260506152503 | 49 | 345 | 0.0 | 0.0 | 0.00 | 1.40 | 0.00 | 90 | 1006.6 |
| 20260506152003 | 49 | 32 | 0.0 | 0.0 | 0.00 | 1.40 | 0.00 | 90 | 1006.6 |
| 20260506151503 | 49 | 59 | 0.0 | 0.0 | 0.00 | 1.40 | 0.00 | 90 | 1006.6 |
| 20260506151003 | 49 | 302 | 0.0 | 0.0 | 0.00 | 1.39 | 0.00 | 90 | 1006.6 |
| 20260506150503 | 49 | 232 | 0.0 | 0.0 | 0.00 | 1.39 | 0.00 | 90 | 1006.5 |
| 20260506150003 | 49 | 85 | 0.0 | 0.0 | 0.00 | 1.39 | 0.00 | 90 | 1006.4 |
| 20260506145503 | 49 | 0 | 5.0 | 0.0 | 0.00 | 1.39 | 0.00 | 90 | 1006.4 |
| 20260506145002 | 49 | 352 | 0.0 | 0.0 | 0.00 | 1.39 | 0.00 | 90 | 1006.4 |
| 20260506144502 | 49 | 352 | 0.0 | 0.0 | 0.00 | 1.39 | 0.00 | 90 | 1006.4 |
| 20260506144002 | 49 | 25 | 0.0 | 0.0 | 0.00 | 1.39 | 0.00 | 90 | 1006.4 |
| 20260506143502 | 49 | 16 | 3.0 | 0.0 | 0.00 | 1.39 | 0.00 | 90 | 1006.3 |
| 20260506143002 | 49 | 52 | 0.0 | 0.0 | 0.00 | 1.39 | 0.00 | 90 | 1006.3 |
| 20260506142502 | 49 | 358 | 0.0 | 0.0 | 0.00 | 1.39 | 0.00 | 90 | 1006.3 |
| 20260506142002 | 49 | 19 | 2.0 | 0.0 | 0.00 | 1.39 | 0.00 | 90 | 1006.3 |
| 20260506141502 | 49 | 6 | 2.0 | 0.0 | 0.00 | 1.38 | 0.00 | 90 | 1006.3 |
| 20260506141002 | 49 | 16 | 0.0 | 0.0 | 0.00 | 1.38 | 0.00 | 90 | 1006.3 |
| 20260506140502 | 49 | 359 | 0.0 | 0.0 | 0.00 | 1.38 | 0.00 | 90 | 1006.3 |
| 20260506140002 | 49 | 33 | 0.0 | 0.0 | 0.00 | 1.38 | 0.00 | 90 | 1006.3 |
| 20260506135002 | 49 | 54 | 0.0 | 0.0 | 0.00 | 1.38 | 0.00 | 90 | 1006.2 |
| 20260506134502 | 49 | 344 | 3.0 | 0.0 | 0.00 | 1.37 | 0.00 | 90 | 1006.2 |
| 20260506134003 | 50 | 339 | 0.0 | 0.0 | 0.00 | 1.37 | 0.00 | 90 | 1006.2 |
| 20260506133503 | 49 | 16 | 0.0 | 0.0 | 0.05 | 1.37 | 0.00 | 90 | 1006.2 |
| 20260506133003 | 49 | 356 | 0.0 | 0.0 | 0.05 | 1.37 | 0.00 | 90 | 1006.2 |
| 20260506132502 | 49 | 8 | 3.0 | 0.0 | 0.05 | 1.37 | 0.00 | 90 | 1006.3 |
| 20260506132003 | 49 | 353 | 0.0 | 0.0 | 0.06 | 1.36 | 0.00 | 90 | 1006.2 |
| 20260506131503 | 49 | 2 | 0.0 | 0.0 | 0.13 | 1.36 | 0.00 | 90 | 1006.2 |
| 20260506131003 | 49 | 356 | 0.0 | 0.0 | 0.15 | 1.35 | 0.00 | 90 | 1006.2 |
| 20260506130503 | 49 | 56 | 0.0 | 0.0 | 0.07 | 1.34 | 0.00 | 90 | 1006.2 |
| 20260506130003 | 49 | 67 | 0.0 | 0.0 | 0.00 | 1.33 | 0.00 | 90 | 1006.2 |
| 20260506125502 | 49 | 352 | 0.0 | 0.0 | 0.00 | 1.33 | 0.00 | 90 | 1006.2 |
| 20260506125002 | 49 | 40 | 0.0 | 0.0 | 0.04 | 1.32 | 0.00 | 90 | 1006.1 |
| 20260506124502 | 49 | 73 | 0.0 | 0.0 | 0.05 | 1.32 | 0.00 | 90 | 1006.0 |
| 20260506124002 | 49 | 340 | 0.0 | 0.0 | 0.05 | 1.32 | 0.00 | 90 | 1005.9 |
| 20260506123502 | 49 | 30 | 0.0 | 0.0 | 0.05 | 1.32 | 0.00 | 90 | 1005.9 |
| 20260506123002 | 49 | 64 | 0.0 | 0.0 | 0.06 | 1.31 | 0.00 | 90 | 1005.9 |
| 20260506122502 | 48 | 354 | 5.0 | 0.0 | 0.08 | 1.31 | 0.00 | 90 | 1005.8 |
| 20260506122002 | 48 | 2 | 0.0 | 0.0 | 0.08 | 1.30 | 0.00 | 90 | 1005.8 |
| 20260506121502 | 48 | 48 | 0.0 | 0.0 | 0.09 | 1.30 | 0.00 | 90 | 1005.8 |
| 20260506121002 | 48 | 0 | 0.0 | 0.0 | 0.14 | 1.29 | 0.00 | 90 | 1005.8 |
| 20260506120502 | 48 | 325 | 2.0 | 0.0 | 0.11 | 1.28 | 0.00 | 90 | 1005.8 |
| 20260506120002 | 48 | 33 | 0.0 | 0.0 | 0.11 | 1.27 | 0.00 | 90 | 1005.8 |
| 20260506115502 | 48 | 29 | 0.0 | 0.0 | 0.04 | 1.26 | 0.00 | 90 | 1005.8 |
| 20260506115003 | 48 | 12 | 0.0 | 0.0 | 0.00 | 1.25 | 0.00 | 90 | 1005.8 |
| 20260506114503 | 48 | 10 | 3.0 | 0.0 | 0.00 | 1.25 | 0.00 | 90 | 1005.7 |
| 20260506114003 | 48 | 22 | 0.0 | 0.0 | 0.00 | 1.25 | 0.00 | 90 | 1005.8 |
| 20260506113503 | 48 | 75 | 0.0 | 0.0 | 0.00 | 1.24 | 0.00 | 90 | 1005.8 |
| 20260506113003 | 48 | 8 | 0.0 | 0.0 | 0.00 | 1.24 | 0.00 | 90 | 1005.8 |
| 20260506112502 | 48 | 34 | 0.0 | 0.0 | 0.00 | 1.24 | 0.00 | 90 | 1005.7 |
| 20260506112002 | 48 | 27 | 0.0 | 0.0 | 0.00 | 1.24 | 0.00 | 90 | 1005.7 |
| 20260506111502 | 48 | 51 | 5.0 | 0.0 | 0.00 | 1.24 | 0.00 | 90 | 1005.7 |
| 20260506111002 | 48 | 20 | 5.0 | 0.0 | 0.00 | 1.24 | 0.00 | 90 | 1005.7 |
| 20260506110502 | 48 | 90 | 0.0 | 0.0 | 0.00 | 1.23 | 0.00 | 90 | 1005.7 |
| 20260506110002 | 48 | 69 | 0.0 | 0.0 | 0.00 | 1.23 | 0.00 | 90 | 1005.6 |
| 20260506105502 | 48 | 337 | 0.0 | 0.0 | 0.00 | 1.23 | 0.00 | 90 | 1005.6 |
| 20260506105002 | 47 | 30 | 8.0 | 0.0 | 0.00 | 1.23 | 0.00 | 90 | 1005.6 |
| 20260506104502 | 47 | 76 | 0.0 | 0.0 | 0.00 | 1.23 | 0.00 | 90 | 1005.6 |
| 20260506104002 | 47 | 74 | 5.0 | 0.0 | 0.00 | 1.22 | 0.00 | 90 | 1005.6 |
| 20260506103502 | 47 | 13 | 0.0 | 0.0 | 0.00 | 1.22 | 0.00 | 90 | 1005.7 |
| 20260506103002 | 47 | 46 | 5.0 | 0.0 | 0.00 | 1.22 | 0.00 | 90 | 1005.7 |
| 20260506102502 | 47 | 39 | 0.0 | 0.0 | 0.00 | 1.22 | 0.00 | 90 | 1005.6 |
| 20260506102002 | 47 | 358 | 8.0 | 0.0 | 0.00 | 1.22 | 0.00 | 90 | 1005.6 |
| 20260506101502 | 47 | 27 | 0.0 | 0.0 | 0.00 | 1.22 | 0.00 | 90 | 1005.7 |
| 20260506101002 | 47 | 327 | 0.0 | 0.0 | 0.00 | 1.22 | 0.00 | 90 | 1005.6 |
| 20260506100503 | 47 | 39 | 0.0 | 0.0 | 0.00 | 1.22 | 0.00 | 90 | 1005.6 |
| 20260506100003 | 47 | 294 | 0.0 | 0.0 | 0.00 | 1.22 | 0.00 | 90 | 1005.5 |
| 20260506095503 | 47 | 96 | 0.0 | 0.0 | 0.00 | 1.22 | 0.00 | 90 | 1005.5 |
| 20260506095003 | 47 | 51 | 3.0 | 0.0 | 0.00 | 1.22 | 0.00 | 90 | 1005.5 |
| 20260506094502 | 47 | 57 | 0.0 | 0.0 | 0.00 | 1.22 | 0.00 | 90 | 1005.4 |
| 20260506094003 | 47 | 78 | 6.0 | 0.0 | 0.00 | 1.22 | 0.00 | 90 | 1005.4 |
| 20260506093503 | 47 | 321 | 0.0 | 0.0 | 0.00 | 1.21 | 0.00 | 90 | 1005.4 |
| 20260506093003 | 47 | 14 | 0.0 | 0.0 | 0.00 | 1.21 | 0.00 | 90 | 1005.4 |
| 20260506092503 | 47 | 352 | 0.0 | 0.0 | 0.00 | 1.21 | 0.00 | 90 | 1005.4 |
| 20260506092002 | 46 | 359 | 0.0 | 0.0 | 0.00 | 1.21 | 0.00 | 90 | 1005.4 |
| 20260506091502 | 46 | 21 | 0.0 | 0.0 | 0.00 | 1.21 | 0.00 | 90 | 1005.4 |
| 20260506091002 | 46 | 315 | 0.0 | 0.0 | 0.00 | 1.21 | 0.00 | 90 | 1005.4 |
| 20260506090502 | 46 | 346 | 0.0 | 0.0 | 0.00 | 1.21 | 0.00 | 90 | 1005.3 |
| 20260506090002 | 46 | 345 | 14.0 | 0.0 | 0.00 | 1.21 | 0.00 | 90 | 1005.3 |
| 20260506085502 | 46 | 342 | 0.0 | 0.0 | 0.00 | 1.20 | 0.00 | 90 | 1005.3 |
| 20260506085002 | 46 | 358 | 2.0 | 0.0 | 0.00 | 1.20 | 0.00 | 90 | 1005.2 |
| 20260506084502 | 46 | 62 | 0.0 | 0.0 | 0.04 | 1.20 | 0.00 | 90 | 1005.3 |
| 20260506084002 | 46 | 348 | 0.0 | 0.0 | 0.04 | 1.20 | 0.00 | 90 | 1005.2 |
| 20260506083502 | 46 | 61 | 5.0 | 0.0 | 0.04 | 1.20 | 0.00 | 90 | 1005.2 |
| 20260506083002 | 46 | 19 | 9.0 | 0.0 | 0.04 | 1.19 | 0.00 | 90 | 1005.2 |
| 20260506082502 | 46 | 13 | 0.0 | 0.0 | 0.05 | 1.19 | 0.00 | 90 | 1005.1 |
| 20260506082002 | 46 | 56 | 6.0 | 0.0 | 0.05 | 1.19 | 0.00 | 90 | 1005.1 |
| 20260506081503 | 46 | 83 | 0.0 | 0.0 | 0.05 | 1.19 | 0.00 | 90 | 1005.0 |
| 20260506081003 | 46 | 14 | 9.0 | 0.0 | 0.06 | 1.18 | 0.00 | 90 | 1005.0 |
| 20260506080503 | 46 | 50 | 6.0 | 0.0 | 0.06 | 1.18 | 0.00 | 90 | 1004.9 |
| 20260506073502 | 45 | 337 | 0.0 | 0.0 | 0.10 | 1.14 | 0.00 | 90 | 1004.9 |
| 20260506073002 | 46 | 340 | 9.0 | 0.0 | 0.10 | 1.14 | 0.00 | 90 | 1004.9 |
| 20260506072502 | 46 | 35 | 0.0 | 0.0 | 0.10 | 1.13 | 0.00 | 90 | 1004.8 |
| 20260506072002 | 46 | 2 | 0.0 | 0.0 | 0.09 | 1.12 | 0.00 | 90 | 1004.8 |
| 20260506071502 | 46 | 17 | 2.0 | 0.0 | 0.13 | 1.11 | 0.00 | 90 | 1004.8 |
| 20260506071002 | 46 | 343 | 0.0 | 0.0 | 0.12 | 1.10 | 0.00 | 90 | 1004.8 |
| 20260506070502 | 46 | 359 | 6.0 | 0.0 | 0.14 | 1.09 | 0.00 | 90 | 1004.7 |
| 20260506062502 | 47 | 27 | 0.0 | 0.0 | 0.10 | 0.99 | 0.00 | 90 | 1004.6 |
| 20260506062002 | 47 | 359 | 0.0 | 0.0 | 0.11 | 0.99 | 0.00 | 90 | 1004.6 |
| 20260505223503 | 52 | 50 | 0.0 | 0.0 | 0.00 | 0.00 | 0.00 | 89 | 1006.5 |
| 20260505223002 | 52 | 50 | 0.0 | 0.0 | 0.00 | 0.00 | 0.00 | 89 | 1006.5 |
| 20260505222502 | 52 | 52 | 0.0 | 0.0 | 0.00 | 0.00 | 0.00 | 89 | 1006.6 |
| 20260505222002 | 52 | 2 | 0.0 | 0.0 | 0.00 | 0.00 | 0.00 | 89 | 1006.6 |
| 20260505221502 | 52 | 349 | 0.0 | 0.0 | 0.00 | 0.00 | 0.00 | 89 | 1006.6 |
| 20260505221002 | 52 | 31 | 0.0 | 0.0 | 0.00 | 0.00 | 0.00 | 89 | 1006.7 |
| 20260505220502 | 52 | 2 | 9.0 | 0.0 | 0.00 | 0.00 | 0.00 | 89 | 1006.7 |
| 20260505215502 | 52 | 12 | 0.0 | 0.0 | 0.00 | 0.07 | 0.00 | 89 | 1006.7 |
| 20260505215002 | 52 | 40 | 3.0 | 0.0 | 0.00 | 0.07 | 0.00 | 89 | 1006.7 |
| 20260505214502 | 52 | 43 | 6.0 | 0.0 | 0.00 | 0.07 | 0.00 | 89 | 1006.7 |
| 20260505214002 | 52 | 15 | 0.0 | 0.0 | 0.00 | 0.07 | 0.00 | 89 | 1006.8 |
| 20260505213502 | 52 | 76 | 0.0 | 0.0 | 0.00 | 0.07 | 0.00 | 89 | 1006.8 |
| 20260505213002 | 52 | 52 | 2.0 | 0.0 | 0.00 | 0.07 | 0.00 | 89 | 1006.9 |